GAOFEN-1 04 (43262 NORAD) Tracking and Keplerian Element Data

This shows tracking and keplerian element data for the satellite.

Feedback or suggestion? Click here.




ElementValue
Catalog43262
NameGAOFEN-1 04
Epoch Orbit36919
Epoch Day35.15645336
Epoch Year2025
RAAN101.0411
Inclination97.7914
Eccentricity0.0002598
Argument of Perigee170.5422
Mean Anonmoly189.5838
Mean Motion14.76615337
Decay Rate1.976E-05
L11 43262U 18031D 25035.15645336 .00001976 00000+0 28989-3 0 9999
L22 43262 97.7914 101.0411 0002598 170.5422 189.5838 14.76615337369192



Live tracking and technical data element details for GAOFEN-1 04 (NORAD 43262). GAOFEN-1 04 can be tracked NOW for your location showing map with azimuth and elevation plus other details from your city location.







IsCatalogInMostPopularTable: catalog: 43262, numindb: 493
Update: records affected: 1



GetName: 43262 GAOFEN-1 04

Hit Count: updated at: Thu, 15 May 2025 18:37:58 GMT